Location: Eschentzwiller
(47.7125°N, 7.3981°E)
Time: 00:59:27
(UTC+00:00)

Meteor 2-10 Rocket - Pass Details

Date: 27 October 2020
Orbit: 733 x 885 km, 81.2° (Epoch: 26 November)

Event Time Altitude Azimuth Distance (km) Brightness Sun altitude
Rises 18:37:00 0° 200° (SSW) 3,308 7.0 -23.5°
Reaches altitude 10° 18:39:27 10° 203° (SSW) 2,358 6.2 -24.0°
Maximum altitude 18:44:41 62° 284° (WNW) 872 3.9 -24.8°
Drops below altitude 10° 18:49:47 10° 5° (N) 2,288 6.0 -25.7°
Sets 18:52:08 0° 9° (N) 3,203 6.7 -26.1°
